[[{"header":{"parameterUnit":"m.s-1","parameterCategory":1,"la1":30.2991,"la2":30.254,"lo1":-89.0895,"lo2":-89.0444,"dy":0.0017,"dx":0.0017,"nx":28,"ny":28,"refTime":"2024-03-15T03:00:00:Z","depth":0,"parameterNumber":2,"parameterNumberName":"U-component_of_WINDS"},"data":[0,0,0,0,0,0,0,0,0,0,0,0,0,0,0,0,0,0,0,0,0,0,0,0,0,0,0,0,0,0,0,0,0,0,0,0,0,0,0,0,0,0,0,0,0,0,0,0,0,0,0,0,0,0,0,0,0,0,-1.609,-1.6089,0,-1.6056,-1.6056,-1.6055,-1.6013,-1.6013,-1.6012,-1.6011,-1.5978,-1.5978,-1.5978,0,0,0,0,0,0,0,0,0,0,0,0,0,-1.6119,-1.6118,-1.609,-1.6089,-1.6089,-1.6056,-1.6056,-1.6055,-1.6013,-1.6013,-1.6012,-1.6011,-1.5978,-1.5978,-1.5978,0,0,0,0,0,0,0,0,0,0,0,0,0,-1.6098,-1.6118,-1.609,-1.6064,-1.6061,-1.6056,-1.6056,-1.6055,-1.6014,-1.6012,-1.6011,-1.6011,-1.5978,-1.5978,-1.5978,-1.5995,0,0,-1.5976,-1.5976,0,0,0,0,0,0,0,0,-1.6099,-1.6097,-1.6068,-1.6066,-1.6063,-1.6038,-1.6054,-1.6035,-1.6014,-1.6032,-1.6011,-1.601,-1.5999,-1.5997,-1.5993,-1.5994,-1.5992,-1.5976,-1.5976,-1.5976,-1.5976,0,0,0,0,0,0,0,-1.6101,-1.6098,-1.6077,-1.6068,-1.6065,-1.6054,-1.605,-1.605,-1.6021,-1.603,-1.6027,-1.6023,-1.5997,-1.5993,-1.5992,-1.5992,-1.5976,-1.5976,-1.5976,-1.5976,-1.6006,-1.6007,0,0,0,0,0,0,-1.6106,-1.61,-1.6078,-1.6076,-1.6079,-1.6055,-1.605,-1.6047,-1.6021,-1.6016,-1.6024,-1.6022,-1.5994,-1.5992,-1.599,-1.6009,-1.5976,-1.5976,-1.5975,-1.6005,-1.6006,-1.6007,0,0,0,0,0,0,-1.6107,-1.6104,-1.6079,-1.6087,-1.6083,-1.6055,-1.6052,-1.6047,-1.6043,-1.6017,-1.6012,-1.6025,-1.5993,-1.5991,-1.5994,-1.6007,-1.5975,-1.5975,-1.6003,-1.6005,-1.6006,-1.6047,0,0,0,0,0,0,-1.6108,-1.6105,-1.6111,-1.6087,-1.6082,-1.6083,-1.6053,-1.6047,-1.6042,-1.6038,-1.6017,-1.6012,-1.5992,-1.5995,-1.5994,-1.6006,-1.5975,-1.6002,-1.6004,-1.6006,-1.6045,-1.605,-1.6054,0,0,0,0,0,-1.6109,-1.6124,-1.6112,-1.6109,-1.609,-1.6084,-1.6082,-1.6058,-1.6043,-1.6049,-1.6033,-1.6013,-1.6006,-1.5996,-1.5994,-1.6007,-1.6001,-1.6004,-1.6006,-1.6042,-1.6049,-1.6054,0,0,0,0,0,0,-1.6151,-1.6121,-1.6106,-1.6114,-1.6102,-1.6077,-1.6084,-1.6066,-1.6058,-1.6055,-1.6027,-1.6022,-1.6029,-1.6018,-1.6007,-1.6022,-1.6001,-1.6003,-1.6029,-1.6035,-1.604,-1.6042,-1.5974,0,0,0,0,0,-1.6161,-1.6159,-1.6133,-1.6142,-1.6137,-1.6112,-1.6109,-1.6092,-1.6078,-1.6073,-1.6056,-1.6044,-1.6039,-1.6037,-1.6031,-1.6043,-1.6037,-1.6051,-1.6056,-1.606,-1.6062,-1.6067,-1.6072,-1.6015,-1.6015,-1.6015,0,0,-1.6182,-1.6166,-1.6166,-1.6151,-1.6139,-1.6137,-1.6108,-1.6107,-1.6106,-1.6073,-1.6075,-1.6062,-1.6047,-1.6055,-1.6057,-1.6046,-1.6077,-1.6063,-1.6066,-1.6066,-1.607,-1.6075,-1.608,-1.6016,-1.6016,-1.6016,0,0,-1.622,-1.6207,-1.6213,-1.6202,-1.6185,-1.6168,-1.617,-1.6148,-1.6138,-1.6139,-1.6114,-1.6112,-1.6105,-1.6094,-1.6088,-1.6122,-1.6103,-1.6121,-1.6147,-1.6152,-1.6157,-1.616,-1.6172,-1.6176,-1.6123,-1.6123,-1.6123,0,-1.6248,-1.6245,-1.6219,-1.622,-1.6214,-1.6184,-1.619,-1.6181,-1.6163,-1.6159,-1.6147,-1.6136,-1.6123,-1.6128,-1.6136,-1.6132,-1.6133,-1.6123,-1.6158,-1.6162,-1.6165,-1.6175,-1.618,-1.6125,-1.6125,-1.6125,-1.6125,0,-1.628,-1.6278,-1.6286,-1.6268,-1.6263,-1.6267,-1.6242,-1.624,-1.6224,-1.6208,-1.621,-1.6194,-1.6184,-1.6184,-1.6168,-1.6186,-1.618,-1.6163,-1.6141,-1.6173,-1.6182,-1.6186,-1.6129,-1.6128,-1.6127,-1.6126,0,0,-1.6343,-1.6312,-1.6315,-1.6306,-1.6285,-1.6283,-1.6286,-1.6275,-1.6274,-1.6263,-1.6264,-1.6258,-1.6242,-1.6235,-1.6218,-1.6223,-1.625,-1.6205,-1.6204,-1.6214,-1.6268,-1.628,-1.6286,-1.6237,-1.6238,-1.6238,-1.6269,0,-1.6377,-1.6378,-1.6356,-1.6364,-1.6361,-1.6332,-1.6334,-1.6322,-1.6307,-1.6303,-1.6288,-1.6283,-1.6263,-1.6259,-1.6262,-1.6246,-1.626,-1.6243,-1.6238,-1.6238,-1.6242,-1.6291,-1.6304,-1.6333,-1.6273,-1.6273,-1.6274,0,-1.6415,-1.6406,-1.6414,-1.6391,-1.6389,-1.6392,-1.638,-1.6377,-1.6362,-1.6351,-1.6343,-1.6324,-1.6324,-1.6304,-1.6305,-1.6294,-1.629,-1.6282,-1.6282,-1.628,-1.6258,-1.629,-1.6342,-1.6347,-1.628,-1.6279,-1.6279,0,-1.646,-1.6449,-1.6452,-1.6446,-1.642,-1.6422,-1.6412,-1.6396,-1.6391,-1.6381,-1.6378,-1.6369,-1.6364,-1.6357,-1.6335,-1.6322,-1.6338,-1.6316,-1.6329,-1.633,-1.6334,-1.6334,-1.6386,-1.6333,-1.6333,-1.6333,-1.6332,0,-1.6499,-1.6505,-1.6471,-1.6473,-1.6479,-1.6453,-1.6459,-1.6446,-1.6432,-1.6431,-1.6405,-1.6405,-1.6376,-1.6373,-1.6356,-1.6359,-1.6357,-1.6348,-1.6344,-1.635,-1.6351,-1.6347,-1.6344,-1.6334,-1.6333,-1.6333,-1.6333,0,-1.6549,-1.6527,-1.6528,-1.6504,-1.6498,-1.6503,-1.6482,-1.6483,-1.6467,-1.6466,-1.6464,-1.644,-1.6434,-1.6412,-1.6401,-1.639,-1.6398,-1.6389,-1.6403,-1.64,-1.6414,-1.6413,-1.6465,-1.647,-1.6415,-1.6415,-1.6416,0,-1.6575,-1.6579,-1.6555,-1.6552,-1.6542,-1.6538,-1.6533,-1.6508,-1.6503,-1.6487,-1.6489,-1.6482,-1.6474,-1.6467,-1.6448,-1.6439,-1.643,-1.6449,-1.6428,-1.6435,-1.6429,-1.6429,-1.6429,-1.6453,-1.6454,-1.6454,-1.6455,0,-1.6623,-1.6612,-1.6606,-1.6595,-1.6589,-1.658,-1.6569,-1.6569,-1.654,-1.6537,-1.653,-1.6525,-1.6513,-1.6506,-1.6494,-1.6484,-1.6464,-1.6461,-1.6464,-1.647,-1.6478,-1.6473,-1.6414,-1.646,-1.646,-1.6459,-1.6459,-1.6459,-1.6662,-1.6663,-1.6647,-1.664,-1.6629,-1.6619,-1.6619,-1.6603,-1.6597,-1.6585,-1.6571,-1.6566,-1.6551,-1.6533,-1.6524,-1.652,-1.651,-1.6514,-1.6514,-1.6516,-1.6519,-1.6479,-1.6518,-1.6518,-1.6518,-1.6518,-1.6518,0,-1.6708,-1.6696,-1.669,-1.6675,-1.667,-1.6652,-1.6639,-1.6636,-1.6632,-1.662,-1.6612,-1.6605,-1.6598,-1.6578,-1.6569,-1.657,-1.6561,-1.6568,-1.6567,-1.6565,-1.6529,-1.6527,-1.6575,-1.6575,-1.6575,-1.6575,-1.6575,-1.6575,-1.6731,-1.6733,-1.672,-1.6716,-1.6704,-1.6699,-1.6693,-1.6684,-1.6673,-1.6666,-1.666,-1.6647,-1.6631,-1.6621,-1.6613,-1.6608,-1.6605,-1.6615,-1.6607,-1.6573,-1.6568,-1.6563,-1.6561,-1.6615,-1.6615,-1.6643,-1.6644,-1.6644]},{"header":{"parameterUnit":"m.s-1","parameterCategory":1,"la1":30.2991,"la2":30.254,"lo1":-89.0895,"lo2":-89.0444,"dy":0.0017,"dx":0.0017,"nx":28,"ny":28,"refTime":"2024-03-15T03:00:00:Z","depth":0,"parameterNumber":3,"parameterNumberName":"V-component_of_WINDS"},"data":[0,0,0,0,0,0,0,0,0,0,0,0,0,0,0,0,0,0,0,0,0,0,0,0,0,0,0,0,0,0,0,0,0,0,0,0,0,0,0,0,0,0,0,0,0,0,0,0,0,0,0,0,0,0,0,0,0,0,-2.3616,-2.3615,0,-2.3568,-2.3568,-2.3567,-2.3535,-2.3534,-2.3534,-2.3534,-2.3481,-2.348,-2.3478,0,0,0,0,0,0,0,0,0,0,0,0,0,-2.3674,-2.3673,-2.3616,-2.3615,-2.3615,-2.3569,-2.3568,-2.3567,-2.3535,-2.3534,-2.3534,-2.3534,-2.3481,-2.348,-2.3478,0,0,0,0,0,0,0,0,0,0,0,0,0,-2.364,-2.3673,-2.3616,-2.3593,-2.359,-2.3569,-2.3568,-2.3567,-2.3535,-2.3534,-2.3534,-2.3534,-2.3482,-2.348,-2.3478,-2.3474,0,0,-2.3473,-2.3472,0,0,0,0,0,0,0,0,-2.3642,-2.3638,-2.3597,-2.3595,-2.3592,-2.3557,-2.3569,-2.3536,-2.3535,-2.3556,-2.3534,-2.3534,-2.3506,-2.3502,-2.3494,-2.3472,-2.3469,-2.3473,-2.3471,-2.3471,-2.347,0,0,0,0,0,0,0,-2.3644,-2.364,-2.3597,-2.3596,-2.3593,-2.3584,-2.3578,-2.3562,-2.3533,-2.3554,-2.3551,-2.3547,-2.3505,-2.3496,-2.3493,-2.3469,-2.3473,-2.3471,-2.347,-2.3469,-2.344,-2.344,0,0,0,0,0,0,-2.3651,-2.3642,-2.3598,-2.3596,-2.3617,-2.3583,-2.3577,-2.3569,-2.3533,-2.3528,-2.3547,-2.3545,-2.3499,-2.3495,-2.3491,-2.3484,-2.3471,-2.3469,-2.3468,-2.344,-2.344,-2.344,0,0,0,0,0,0,-2.3652,-2.3647,-2.36,-2.3618,-2.3611,-2.3582,-2.3573,-2.3568,-2.3559,-2.3528,-2.3522,-2.3544,-2.3499,-2.3493,-2.3479,-2.3481,-2.3468,-2.3467,-2.3439,-2.344,-2.344,-2.3469,0,0,0,0,0,0,-2.3654,-2.3648,-2.3647,-2.3618,-2.3611,-2.3591,-2.3573,-2.3567,-2.3557,-2.3554,-2.3524,-2.3518,-2.3498,-2.3482,-2.3477,-2.3479,-2.3465,-2.3439,-2.344,-2.344,-2.3468,-2.3471,-2.3473,0,0,0,0,0,-2.3656,-2.3656,-2.3647,-2.3642,-2.3609,-2.3591,-2.3586,-2.3564,-2.3557,-2.3555,-2.3535,-2.3519,-2.3482,-2.348,-2.3475,-2.3476,-2.3439,-2.3439,-2.344,-2.3467,-2.347,-2.3473,0,0,0,0,0,0,-2.3684,-2.3652,-2.3642,-2.3633,-2.3615,-2.3586,-2.3583,-2.3569,-2.3551,-2.355,-2.3522,-2.3515,-2.3503,-2.3488,-2.3487,-2.347,-2.3458,-2.3458,-2.3481,-2.3483,-2.3486,-2.349,-2.3464,0,0,0,0,0,-2.369,-2.3679,-2.3651,-2.3646,-2.3637,-2.3612,-2.3603,-2.3588,-2.3568,-2.356,-2.3539,-2.3519,-2.3502,-2.3492,-2.3475,-2.3466,-2.3458,-2.3464,-2.3466,-2.3469,-2.3468,-2.3462,-2.3464,-2.3443,-2.3443,-2.3443,0,0,-2.37,-2.3681,-2.3676,-2.3651,-2.3635,-2.3624,-2.3605,-2.3594,-2.3585,-2.3557,-2.3543,-2.3527,-2.3502,-2.3491,-2.3484,-2.3477,-2.3473,-2.3469,-2.3471,-2.347,-2.3463,-2.3465,-2.3467,-2.3443,-2.3443,-2.3443,0,0,-2.3714,-2.3699,-2.3693,-2.3678,-2.3655,-2.3638,-2.3637,-2.361,-2.3599,-2.3584,-2.3563,-2.3551,-2.3524,-2.3507,-2.3495,-2.3503,-2.3487,-2.3498,-2.3511,-2.3506,-2.3507,-2.3509,-2.3511,-2.3512,-2.3498,-2.3498,-2.3499,0,-2.3729,-2.3712,-2.3691,-2.3681,-2.367,-2.3647,-2.364,-2.3626,-2.3598,-2.3591,-2.3584,-2.355,-2.3531,-2.3515,-2.3518,-2.3509,-2.3505,-2.3502,-2.3509,-2.351,-2.3511,-2.3513,-2.3514,-2.35,-2.35,-2.35,-2.3499,0,-2.3733,-2.3721,-2.3719,-2.3695,-2.3684,-2.3675,-2.3651,-2.3642,-2.3628,-2.3612,-2.3597,-2.3574,-2.3553,-2.3548,-2.3533,-2.353,-2.3526,-2.3515,-2.3502,-2.3515,-2.3516,-2.3517,-2.3502,-2.3502,-2.3501,-2.3501,0,0,-2.3762,-2.3727,-2.3726,-2.3715,-2.3689,-2.3679,-2.3669,-2.365,-2.3642,-2.3624,-2.3614,-2.3592,-2.3582,-2.3568,-2.3551,-2.3546,-2.3554,-2.3535,-2.3534,-2.3539,-2.3548,-2.3557,-2.3558,-2.3543,-2.3543,-2.3543,-2.355,0,-2.3771,-2.3754,-2.3734,-2.3723,-2.3712,-2.369,-2.3681,-2.3663,-2.3648,-2.3635,-2.3616,-2.3601,-2.3588,-2.358,-2.3574,-2.3554,-2.3555,-2.3553,-2.3533,-2.3532,-2.354,-2.3559,-2.3568,-2.3575,-2.355,-2.355,-2.355,0,-2.3779,-2.3764,-2.3753,-2.3728,-2.3722,-2.3715,-2.3696,-2.3684,-2.3663,-2.3652,-2.3638,-2.362,-2.3607,-2.3597,-2.3578,-2.3578,-2.3568,-2.3557,-2.3556,-2.3553,-2.3542,-2.3556,-2.3577,-2.3578,-2.3551,-2.3551,-2.3551,0,-2.3802,-2.3778,-2.3768,-2.3759,-2.373,-2.3726,-2.3713,-2.3692,-2.3681,-2.3664,-2.3657,-2.3637,-2.3627,-2.3612,-2.3589,-2.3583,-2.3573,-2.356,-2.3562,-2.3563,-2.356,-2.3561,-2.358,-2.3555,-2.3555,-2.3555,-2.3555,0,-2.3814,-2.3807,-2.3778,-2.3772,-2.3764,-2.3741,-2.3733,-2.3718,-2.37,-2.369,-2.3668,-2.3659,-2.363,-2.3616,-2.3598,-2.3585,-2.3581,-2.357,-2.3565,-2.3572,-2.3573,-2.3565,-2.3564,-2.3555,-2.3555,-2.3555,-2.3555,0,-2.3837,-2.3817,-2.3805,-2.3779,-2.3772,-2.3767,-2.3744,-2.3737,-2.372,-2.3707,-2.3703,-2.3676,-2.3659,-2.3636,-2.3611,-2.3599,-2.3588,-2.3581,-2.3596,-2.3593,-2.3596,-2.3596,-2.361,-2.3611,-2.3586,-2.3586,-2.3586,0,-2.3846,-2.3841,-2.3815,-2.3807,-2.3796,-2.3784,-2.3773,-2.3751,-2.3741,-2.3717,-2.3712,-2.3694,-2.3678,-2.3652,-2.3629,-2.361,-2.3602,-2.3608,-2.3599,-2.3605,-2.3601,-2.3602,-2.3601,-2.361,-2.3611,-2.3611,-2.3611,0,-2.3864,-2.3854,-2.3841,-2.3825,-2.3814,-2.38,-2.3784,-2.3779,-2.3752,-2.3742,-2.3726,-2.3714,-2.3689,-2.3671,-2.3649,-2.3634,-2.3618,-2.3615,-2.3614,-2.362,-2.3629,-2.3624,-2.3602,-2.3614,-2.3614,-2.3614,-2.3613,-2.3613,-2.3879,-2.3874,-2.3855,-2.3842,-2.3828,-2.3814,-2.3806,-2.3789,-2.3776,-2.3755,-2.3742,-2.3726,-2.3705,-2.3674,-2.366,-2.3646,-2.364,-2.3639,-2.3638,-2.3638,-2.3641,-2.3632,-2.3642,-2.3642,-2.3642,-2.3642,-2.3642,0,-2.3896,-2.3883,-2.3871,-2.3851,-2.384,-2.3828,-2.381,-2.3801,-2.3788,-2.377,-2.3756,-2.3737,-2.3719,-2.3696,-2.3676,-2.367,-2.3662,-2.3665,-2.3665,-2.3662,-2.3648,-2.365,-2.3672,-2.3672,-2.3672,-2.3672,-2.3672,-2.3672,-2.3903,-2.3894,-2.3882,-2.3865,-2.3852,-2.3838,-2.3828,-2.3815,-2.3801,-2.3781,-2.3768,-2.3753,-2.3733,-2.3712,-2.3695,-2.3688,-2.3682,-2.3687,-2.3678,-2.3666,-2.3663,-2.366,-2.3662,-2.3686,-2.3686,-2.3694,-2.3694,-2.3694]}]]